Regional Weather Roundup
Issued by NWS Upton, NY

Current Version | Previous Version | Text Only | Print | Product List | Glossary On
Versions: 1 2 3 4 5 6 7 8 9 10 11 12 13 14 15 16 17 18 19 20 21 22 23 24 25 26 27 28 29 30 31 32 33 34 35 36 37 38 39 40 41 42 43 44 45 46 47 48 49 50
000 ASUS41 KOKX 261005 RWROKX REGIONAL WEATHER ROUNDUP NATIONAL WEATHER SERVICE NEW YORK NY 500 AM EST MON JAN 26 2015 NOTE: "FAIR" INDICATES FEW OR NO CLOUDS BELOW 12,000 FEET WITH NO SIGNIFICANT WEATHER AND/OR OBSTRUCTIONS TO VISIBILITY. NYZ071-072-176-178-NJZ106-104-261100- NEW YORK CITY METRO AREA CITY SKY/WX TMP DP RH WIND PRES REMARKS CENTRAL PARK CLOUDY 25 6 44 NE12 30.03F WCI 14 LAGUARDIA APRT CLOUDY 24 10 55 NE16 30.02F WCI 11 KENNEDY INTL FLURRIES 26 13 57 NE15 30.03S WCI 14 NEWARK/LIBERTY FLURRIES 23 13 65 N13 30.02S WCI 11 BRNX BOT. GARD N/A N/A N/A N/A SE7 30.02F TETERBORO FLURRIES 21 12 68 N8 30.02F WCI 11 $$ NYZ177-179-078>081-261100- LONG ISLAND NEW YORK CITY SKY/WX TMP DP RH WIND PRES REMARKS FARMINGDALE CLOUDY 25 11 55 NE10 30.02S WCI 15 ISLIP CLOUDY 26 10 50 NE13 30.01S WCI 15 SHIRLEY CLOUDY 26 10 50 VRB6 30.04S WCI 19 WESTHAMPTON CLOUDY 26 10 50 NE13 30.04S WCI 15 MONTAUK POINT N/A 27 12 53 NE10G18 30.05F WCI 17 $$ NYZ052-065-067-261100- HUDSON VALLEY CITY SKY/WX TMP DP RH WIND PRES REMARKS WHITE PLAINS CLOUDY 20 3 48 NE7 29.99F WCI 11 NEWBURGH NOT AVBL MONTGOMERY CLOUDY 17 2 51 NE9 30.03R WCI 6 POUGHKEEPSIE CLOUDY 18 2 49 N7 30.06S WCI 9 ALBANY CLOUDY 10 -2 58 N9 30.11R WCI -3 $$ NJZ001-105-106-008-010-013-015-019>022-104-261100- NEW JERSEY CITY SKY/WX TMP DP RH WIND PRES REMARKS NEWARK/LIBERTY FLURRIES 23 13 65 N13 30.02S WCI 11 TETERBORO FLURRIES 21 12 68 N8 30.02F WCI 11 CALDWELL LGT SNOW 19 14 81 NE7 30.02F WCI 10 MORRISTOWN LGT SNOW 21 16 79 NE8 30.02S WCI 12 SOMERVILLE LGT SNOW 22 15 75 NE8 29.98F WCI 12 SUSSEX CLOUDY 18 3 52 NE13 29.99F WCI 5 ANDOVER N/A 16 11 80 VRB6 29.98S WCI 7 TRENTON LGT SNOW 25 19 78 NE13 29.95F WCI 14 MILLVILLE CLOUDY 33 25 72 NE10 29.88F WCI 25 ATLANTIC CITY LGT SNOW 33 28 81 NE21G30 29.90F WCI 21 WRIGHTSTOWN CLOUDY 29 22 77 NE12 29.92F WCI 19 TOMS RIVER CLOUDY 30 23 74 E16G25 29.95F WCI 19 BELMAR CLOUDY 28 16 59 NE20G25 29.95F WCI 15 $$ PAZ047>061-062-071-261100- EASTERN PENNSYLVANIA CITY SKY/WX TMP DP RH WIND PRES REMARKS PHILADELPHIA CLOUDY 31 22 69 NE12 29.94S WCI 22 ALLENTOWN LGT SNOW 20 15 81 NE16 29.95F WCI 6 SCRANTON LGT SNOW 16 11 80 NE8 29.91F VSB 1 WCI 5 $$ CTZ002-004>006-009-010-012-RIZ004-006-007-MAZ004-011-015-261100- SOUTHERN NEW ENGLAND IN CT CITY SKY/WX TMP DP RH WIND PRES REMARKS BRADLEY INTL MOCLDY 16 1 51 N9 30.07R WCI 4 HARTFORD CLOUDY 18 6 59 VRB6 30.09R WCI 10 DANBURY CLOUDY 18 2 49 NE10 30.03F WCI 6 WTRBRY/OXFORD CLOUDY 18 0 45 E10 30.01R WCI 6 BRIDGEPORT CLOUDY 22 8 55 NE12 30.05S WCI 10 MERIDEN CLOUDY 19 5 54 N10 30.07R WCI 7 NEW HAVEN CLOUDY 21 8 57 NE10 30.05S WCI 10 CHESTER CLOUDY 21 9 58 NE5 30.04S WCI 15 GROTON CLOUDY 21 5 50 NE10 30.06S WCI 10 WILLIMANTIC CLOUDY 19 4 51 N6 30.07R WCI 11 IN RI CITY SKY/WX TMP DP RH WIND PRES REMARKS PROVIDENCE MOCLDY 17 2 51 N15 30.08S WCI 2 BLOCK ISLAND CLOUDY 25 9 50 NE10G17 30.03S WCI 15 WESTERLY CLOUDY 22 5 48 NE5 30.07R WCI 16 IN MA CITY SKY/WX TMP DP RH WIND PRES REMARKS BOSTON CLOUDY 12 -2 53 N9 30.13R WCI 0 WORCESTER MOCLDY 9 -1 64 NE6 30.00S WCI -1 WESTFIELD MOCLDY 14 1 56 NE8 30.07S WCI 3 PROVINCETOWN CLOUDY 25 16 68 NE10 30.08F WCI 15 NANTUCKET CLOUDY 28 19 69 N10 30.04F WCI 19 $$ ANZ330-335-338-340-345-350-353-355-261100- COASTAL MARINE OBSERVATIONS STATION/POSITION TIME SKY/WX TEMP WIND PRES VSBY WAVE AIR SEA DIR/SP/G HT/PER (UTC) (F) (DEG/KT/KT) (MB) (MI) (FT/S) NY HARB ENTRANCE 1000 29 42 50/ 17/ 21 1015.4 3/ 4 4S FIRE IS 1000 39 N/A 4/11 20S FIRE ISLAND 0900 41 1015.9 4/ 5 23SW MTP 1000 N/A 5/10 HUDSON CANYON NOT AVBL EXECUTION ROCKS 1000 25 35 40/ 16/ 21 N/A WESTERN LI SOUND 1000 24 40/ 12/ 16 N/A 1/ 3 CENTRAL LI SOUND 0900 24 36 50/ 12/ 16 N/A 1/ 3 EASTERN LI SOUND NOT AVBL ROBBINS REEF 1000 25 60/ 18/ 23 1015.0 $$ >>>>>>>>>>>>>>>>>>>>>>>>>>>> KEY <<<<<<<<<<<<<<<<<<<<<<<<<<< > < > SKY/WX - SKY CONDITION/PRESENT WEATHER < > TMP - TEMPERATURE IN FAHRENHEIT < > DP - DEWPOINT IN FAHRENHEIT < > RH - RELATIVE HUMIDITY IN PERCENT < > WIND - DIRECTION AND SPEED IN MPH < > PRES - MEAN SEA LEVEL PRESSURE IN INCHES OF HG < > WCI - WIND CHILL INDEX < > VSB - VISIBILITY IN MILES < > HX - HEAT INDEX < > TC - TEMPERATURE IN CELSIUS < > VRB - VARIABLE WIND DIRECTION < > < >>>>>>>>>>>>>>>>>>>>>>>>>>>> KEY <<<<<<<<<<<<<<<<<<<<<<<<<<<

USA.gov is the U.S. government's official web portal to all federal, state and local government web resources and services.